Regional Weather Roundup
Issued by NWS

Home | Current Version | Previous Version | Text Only | Print | Product List | Glossary Off
Versions: 1 2 3 4 5 6 7 8 9 10 11 12 13 14 15 16 17 18 19 20 21 22 23 24 25 26 27 28 29 30 31 32 33 34 35 36 37 38 39 40 41 42 43 44 45 46 47 48 49 50

000
ASUS45 KPSR 092210
RWRAZ

ARIZONA REGIONAL HOURLY WEATHER ROUNDUP
NATIONAL WEATHER SERVICE PHOENIX AZ
300 PM MST WED JUL 09 2014

NOTE: FAIR INDICATES FEW OR NO CLOUDS BELOW 12,000 FEET WITH NO
SIGNIFICANT WEATHER AND/OR OBSTRUCTIONS TO VISIBILITY.

AZZ001>003-036-092300-
NORTHWEST ARIZONA

CITY           SKY/WX    TMP DP  RH WIND       PRES   REMARKS
BULLHEAD CITY  MOSUNNY   99 N/A N/A S9        29.84F
KINGMAN        MOSUNNY   89  55  31 SW15G24   30.03F
$$

AZZ004>008-015-016-018-092300-
NORTH CENTRAL ARIZONA

CITY           SKY/WX    TMP DP  RH WIND       PRES   REMARKS
GRAND CANYON   LGT RAIN  63  57  81 SE12      30.26S
PRESCOTT       CLOUDY    80  55  42 S8        30.14F
FLAGSTAFF      CLOUDY    69  51  52 NW8       30.29F
PAYSON         PTSUNNY   82  54  36 S9G17     30.16F
PAGE           MOSUNNY   94  44  17 VRB6      30.01F
$$

AZZ009>014-017-092300-
NORTHEAST ARIZONA

CITY           SKY/WX    TMP DP  RH WIND       PRES   REMARKS
WINSLOW        PTSUNNY   90  49  24 S8        30.08F
SAINT JOHNS    PTSUNNY   88  45  22 SW21G30   30.12F
WINDOW ROCK    PTSUNNY   83  45  26 N13       30.21F
SHOW LOW       PTSUNNY   77  48  36 E12       30.23F
$$

AZZ023-092300-
GREATER PHOENIX AREA

CITY           SKY/WX    TMP DP  RH WIND       PRES   REMARKS
PHOENIX        PTSUNNY   96  62  32 S7        29.86F
BUCKEYE          N/A     97  63  32 SW15      29.87F
GLENDALE       PTSUNNY   99  63  30 SW9       29.87F HX 100
LUKE AFB       NOT AVBL
DEER VALLEY    PTSUNNY   95  60  31 SW12      29.88F
SCOTTSDALE     PTSUNNY   94  60  32 SW7       29.90F
MESA-FALCON    PTSUNNY   95  59  30 SW12      29.89F
MESA-GATEWAY   PTSUNNY   97  52  21 W12       29.91F
CHANDLER       PTSUNNY   93  63  36 SW12      29.89F
$$

AZZ027-028-092300-
SOUTHWEST MARICOPA COUNTY AND PINAL COUNTY

CITY           SKY/WX    TMP DP  RH WIND       PRES   REMARKS
CASA GRANDE    PTSUNNY   91  61  35 CALM      29.91F
GILA BEND      MOCLDY    91  61  35 W10       29.90F
$$

AZZ503-504-507>509-092300-
SOUTHEAST ARIZONA

CITY           SKY/WX    TMP DP  RH WIND       PRES   REMARKS
TUCSON         MOSUNNY   93  57  29 VRB5      29.96F
DAVIS-MONTHAN  MOSUNNY   94  58  29 NW15      29.94F
RYAN FIELD       N/A     93  57  29 NW9       29.96F
NOGALES        PTSUNNY   88  57  34 VRB3      30.04F
SIERRA VISTA   TSTM      75  63  64 SW24G35   30.10F
DOUGLAS        TSTM      68  63  84 NE14      30.09R
SAFFORD        CLOUDY    92  51  24 W13G20    29.94F
$$

AZZ020-021-025-026-031-092300-
SOUTHWEST ARIZONA

CITY           SKY/WX    TMP DP  RH WIND       PRES   REMARKS
YUMA           PTSUNNY  104  61  24 S14G21    29.80F HX 105
$$

CAZ031-033-041-043-047-048-061-092300-
SOUTHERN CALIFORNIA

CITY           SKY/WX    TMP DP  RH WIND       PRES   REMARKS
DOWNTOWN L.A.  SUNNY     80  62  54 VRB5      29.91F
L.A. AIRPORT   MOSUNNY   76  62  62 W15       29.93F
SAN DIEGO      MOSUNNY   76  60  57 NW9       29.95F
BURBANK        SUNNY     86  50  28 S10       29.91F
ONTARIO        MOSUNNY   93  53  25 W16       29.90F
RIVERSIDE      SUNNY     92  56  29 W13G20    29.89F
PALM SPRINGS   MOSUNNY  101  68  34 E10       29.82F HX 106
EL CENTRO NAS  MOSUNNY  104  67  30 VRB3      29.76F HX 109
IMPERIAL       SUNNY    104  67  30 E14       29.76F HX 109
BLYTHE         PTSUNNY  101  66  31 S17       29.81F HX 105
NEEDLES        MOSUNNY   98  67  36 S6        29.84F HX 102
$$

NVZ020-UTZ003-092300-
SOUTHERN NEVADA-UTAH

CITY           SKY/WX    TMP DP  RH WIND       PRES   REMARKS
LAS VEGAS      CLOUDY    91  58  32 S3        29.87F
SALT LAKE CITY PTSUNNY   87  48  25 W9        29.95F
$$

NMZ009-TXZ055-092300-
NEW MEXICO-WEST TEXAS

CITY           SKY/WX    TMP DP  RH WIND       PRES   REMARKS
ALBUQUERQUE    PTSUNNY   86  45  23 S3        30.12F
EL PASO        MOSUNNY   93  51  23 CALM      29.99F
$$


........................KEY........................
SKY/WX - SKY CONDITION/WEATHER
TMP    - TEMPERATURE IN FAHRENHEIT
DP     - DEW POINT IN FAHRENHEIT
RH     - RELATIVE HUMIDITY IN PERCENT
WIND   - DIRECTION AND SPEED IN MILES PER HOUR (MPH)
VRB    - VARIABLE WIND DIRECTION
PRES   - MEAN SEA LEVEL PRESSURE IN INCHES OF MERCURY
         F - FALLING PRESSURE   R - RISING PRESSURE
         S - STEADY PRESSURE
VSB    - VISIBILITY IN MILES
HX     - HEAT INDEX IN FAHRENHEIT
WCI    - WIND CHILL INDEX IN FAHRENHEIT
TC     - TEMPERATURE IN CELSIUS WHICH IS ALSO KNOWN AS
         TEMPERATURE IN CENTIGRADE
AFB    - AIR FORCE BASE
         LUKE AFB IS LUKE AIR FORCE BASE
         DAVIS-MONTHAN IS DAVIS-MONTHAN AIR FORCE BASE
NAS    - NAVAL AIR STATION
         EL CENTRO NAS IS EL CENTRO NAVAL AIR STATION
N/A    - NOT AVAILABLE


USA.gov is the U.S. government's official web portal to all federal, state and local government web resources and services.